STARLINK-36893, 68112

Orbit data source: Space-Track

STARLINK-36893, 68112 is a payload satellite owned by SpaceX/Seattle (US) in SSO that was launched on Sun, 08 Mar 2026 UTC via an FALCON 9 launch vehicle from the Air Force Western Test Range (AFWTR). Payload-class satellites include a variety of spacecraft equipped with specific instruments for various scientific and technological missions. These include communications satellites like Starlink; space stations such as the ISS; scientific satellites like the Hubble; Earth observation satellites from companies like Planet Labs, Umbra, and HawkEye 360; GPS; miniature CubeSats for education and research; and military/defense satellites.

Loading next visibility...
Identifier
68112, 2026-044M
Orbit
SSO
Country
Flag of USUS
Related business
Manufacturer
SpaceX/Seattle
Mission
Operational spacecraft
Bus & Motor
STARLINK V2MO, Unknown motor
Mass
575 kg wet, ~530 kg dry
Launch date (UTC)
2026-03-08 (2 months ago)
Launch vehicle
FALCON 9
Launch site
Air Force Western Test Range (AFWTR)
Object type
Payload
Rocket body
Debris
Shape & HBR
Unknown shape, 17.7 m
Radar Cross Section
RCS unknown

Expand to show TLE details & history
Last TLE update: 14 hours ago

TLE from 14 hours ago
0 STARLINK-36893
1 68112U 26044M   26131.85726967  .00011764  00000-0  36606-3 0  9990
2 68112  97.2849  92.6726 0001862  95.6669 264.4786 15.33451601 11265
Epoch: 2026-05-11T20:34Z
TLE epoch observation values (Epoch: 2026-05-11T20:34:28.099Z)
Latitude
-0.00003°
Longitude
-85.58446°
Altitude
468.758 km
Speed
7.632 km/s
True Right ascension
06h 10m 41s
True Declination
0° 00' 00"
Sunlit
Object was in daylight at epoch
Visualization orbit readout
Latitude
Unknown
Longitude
Unknown
Altitude
Unknown
Speed
Unknown
Apparent Right ascension
Unknown
Apparent Declination
Unknown
Sunlit
N/A
Visualization observer readout
Local Sidereal Time
18:27:32
Azimuth
Unknown
Elevation
Unknown
Doppler factor
Unknown
Orbital elements
Apogee altitude
463.74 km
Perigee altitude
461.193 km
Semi-major axis
6,840.603 km
Eccentricity
0.00019
Inclination
97.2849°
RAAN
92.6726°
Arg. of periapsis
95.6669°
True anomaly
264.45736°
Mean anomaly
264.4786°
Eccentric anomaly
264.46798°
Mean motion
3.8362 °/min
Orbital period
93.84 mins
BSTAR
0.00036606
Loading maneuver chart data...
Computing Atmospheric mass density...
Loading historical data...
Loading historical data...
Loading historical data...
Loading historical data...
Loading historical data...
Loading historical data...
Loading historical data...

Documentation

Showing up to 5 results
|